This demonstration page uses our WeatherBlox Daily Observations layout. Learn more.

Left ArrowRight Arrow

34.02893, -84.19858

Hourly Observations for February 8, 2017

Temp ( °F °C ) Dew Point ( °F °C ) Humidity (%) Winds ( mph kmh ) Pressure ( in mb ) Visibility ( mi km ) Precip ( " mm )
12:20 am 00:20 Cloudy with Mist and Fog 54 12 52 11 94 94 SW 3 6 29.80 1009 1 2 0.00 0.00
12:31 am 00:31 Cloudy with Mist and Fog 55 12.8 53 11.7 93 93 Calm 29.80 1009 3 4 0.00 0.00
12:39 am 00:39 Cloudy with Light Rain 55 12.8 54 12.2 96 96 Calm 29.80 1009 4 6 0.00 0.03
12:49 am 00:49 Cloudy with Mist and Fog 55 13 54 12 94 94 Calm 29.80 1009 4 6 0.00 0.03
12:53 am 00:53 Cloudy with Mist and Fog 55 12.8 53 11.7 93 93 WSW 3 6 29.79 1009 3 5 0.00 0.03
1:07 am 01:07 Cloudy 55 12.8 54 12.2 96 96 SW 5 7 29.80 1009 8 13 0.00 0.00
1:53 am 01:53 Cloudy 55 12.8 53 11.7 93 93 Calm 29.78 1009 7 11 0.00 0.00
2:41 am 02:41 Cloudy with Mist and Fog 53 11.7 51 10.6 93 93 Calm 29.77 1008 2 3 0.00 0.00
2:53 am 02:53 Cloudy with Mist and Fog 53 11.7 53 11.7 100 100 Calm 29.77 1008 2 3 0.00 0.00
3:01 am 03:01 Cloudy with Mist and Fog 54 12.2 53 11.7 97 97 Calm 29.77 1008 4 6 0.00 0.00
3:08 am 03:08 Cloudy with Mist and Fog 54 12 54 12 100 100 Calm 29.77 1008 4 6 0.00 0.00
3:53 am 03:53 Cloudy with Mist and Fog 55 12.8 53 11.7 93 93 WSW 5 7 29.78 1009 5 8 0.00 0.00
4:53 am 04:53 Mostly Cloudy with Mist and Fog 54 12.2 53 11.7 97 97 Calm 29.77 1008 4 6 0.00 0.00
5:08 am 05:08 Mostly Cloudy with Mist and Fog 54 12 52 11 94 94 W 3 6 29.80 1009 5 8 0.00 0.00
5:18 am 05:18 Mostly Clear with Mist and Fog 54 12 52 11 94 94 W 3 6 29.80 1009 3 5 0.00 0.00
5:25 am 05:25 Mostly Clear with Mist and Fog 53 11.7 52 11.1 96 96 Calm 29.80 1009 2 3 0.00 0.00
5:37 am 05:37 Clear with Mist and Fog 53 11.7 52 11.1 96 96 WSW 3 6 29.80 1009 1 2 0.00 0.00
5:41 am 05:41 Mostly Cloudy with Mist and Fog 53 11.7 51 10.6 93 93 WSW 3 6 29.80 1009 1 1 0.00 0.00
5:48 am 05:48 Partly Cloudy with Mist and Fog 54 12 52 11 94 94 Calm 29.80 1009 1 1 0.00 0.00
5:53 am 05:53 Mostly Cloudy with Fog 51 10.6 50 10 96 96 Calm 29.80 1009 1 1 0.00 0.00
6:02 am 06:02 Mostly Cloudy with Fog 53 11.7 52 11.1 96 96 Calm 29.80 1009 1 1 0.00 0.00
6:13 am 06:13 Cloudy with Mist and Fog 53 11.7 52 11.1 96 96 WSW 3 6 29.80 1009 1 1 0.00 0.00
6:17 am 06:17 Cloudy with Mist and Fog 53 11.7 52 11.1 96 96 Calm 29.80 1009 2 3 0.00 0.00
6:25 am 06:25 Cloudy with Mist and Fog 54 12.2 53 11.7 97 97 Calm 29.80 1009 4 6 0.00 0.00
6:39 am 06:39 Cloudy with Mist and Fog 53 11.7 52 11.1 96 96 Calm 29.77 1008 2 3 0.00 0.00
6:53 am 06:53 Cloudy with Mist and Fog 53 11.7 52 11.1 96 96 S 3 6 29.78 1008 3 4 0.00 0.00
7:05 am 07:05 Cloudy with Mist and Fog 54 12.2 52 11.1 93 93 SW 5 7 29.80 1009 1 2 0.00 0.00
7:34 am 07:34 Mostly Cloudy with Mist and Fog 54 12 54 12 100 100 SW 7 11 29.80 1009 1 1 0.00 0.00
7:42 am 07:42 Mostly Cloudy with Fog 54 12 54 12 100 100 SSW 5 7 29.80 1009 0 0 0.00 0.00
7:53 am 07:53 Mostly Cloudy with Fog 54 12.2 53 11.7 97 97 SSW 10 17 29.80 1009 0 0 0.00 0.00
8:53 am 08:53 Mostly Cloudy with Fog 55 12.8 54 12.2 96 96 WSW 5 7 29.83 1010 0 0 0.00 0.00
9:53 am 09:53 Mostly Cloudy with Fog 56 13.3 55 12.8 97 97 VRB 3 6 29.84 1011 0 0 0.00 0.00
10:09 am 10:09 Cloudy with Mist and Fog 56 13.3 55 12.8 97 97 W 3 6 29.85 1011 1 2 0.00 0.00
10:53 am 10:53 Cloudy with Mist and Fog 57 13.9 56 13.3 96 96 VRB 5 7 29.85 1011 1 2 0.00 0.00
11:09 am 11:09 Cloudy with Mist and Fog 58 14.4 56 13.3 93 93 SSW 6 9 29.85 1011 1 1 0.00 0.00
11:38 am 11:38 Cloudy with Mist and Fog 57 14 57 14 100 100 Calm 29.85 1011 1 1 0.00 0.00
11:53 am 11:53 Cloudy with Mist and Fog 59 15 57 13.9 93 93 Calm 29.84 1010 1 2 0.00 0.00
11:58 am 11:58 Cloudy with Mist and Fog 59 15 56 13.3 90 90 Calm 29.80 1009 6 10 0.00 0.00
12:53 pm 12:53 Cloudy 61 16.1 57 13.9 87 87 SSE 7 11 29.80 1009 7 11 0.00 0.00
1:53 pm 13:53 Cloudy with Mist and Fog 61 16.1 57 13.9 87 87 S 8 13 29.79 1009 6 10 0.00 0.00
2:53 pm 14:53 Cloudy with Mist and Fog 61 16.1 58 14.4 90 90 S 3 6 29.77 1008 4 6 0.00 0.00
3:53 pm 15:53 Cloudy 63 17.2 59 15 87 87 S 5 7 29.73 1007 8 13 0.00 0.00
4:50 pm 16:50 Mostly Cloudy 64 18 59 15 83 83 SSW 9 15 29.74 1007 10 16 0.00 0.00
4:53 pm 16:53 Mostly Cloudy 65 18.3 59 15 81 81 SSW 9 15 29.75 1007 10 16 0.00 0.00
5:53 pm 17:53 Cloudy 64 17.8 58 14.4 81 81 SW 8 13 29.75 1007 10 16 0.00 0.00
6:06 pm 18:06 Mostly Cloudy 64 17.8 58 14.4 81 81 SW 7 11 29.74 1007 10 16 0.00 0.00
6:53 pm 18:53 Clear 62 16.7 57 13.9 84 84 SW 8 13 29.75 1008 10 16 0.00 0.00
7:53 pm 19:53 Clear 59 15 56 13.3 90 90 SW 7 11 29.75 1007 8 13 0.00 0.00
8:53 pm 20:53 Clear 59 15 56 13.3 90 90 S 3 6 29.73 1007 7 11 0.00 0.00
9:53 pm 21:53 Clear 61 16.1 57 13.9 87 87 S 5 7 29.68 1005 7 11 0.00 0.00
10:53 pm 22:53 Mostly Cloudy 64 17.8 58 14.4 81 81 SW 10 17 29.67 1005 9 14 0.00 0.00
11:12 pm 23:12 Cloudy 64 18 59 15 83 83 WSW 10 17 29.68 1005 9 14 0.00 0.00
11:29 pm 23:29 Cloudy with Light Rain 63 17.2 59 15 87 87 W 13 20 29.68 1005 8 13 0.00 0.03
11:53 pm 23:53 Cloudy with Heavy Rain 60 15.6 56 13.3 86 86 NW 16 26 29.70 1006 3 4 0.09 2.29

Powered by AerisWeather